Volver al catálogo

TSAT-1A

ActivoCienciaVLEO
NORAD 59442·PAYLOAD·🇮🇳 India

Lanzado Apr 7, 2024 desde Cape Canaveral Space Force Station

Loading…

Próximos Pases (próximas 24 horas)

TLE

ActualizadoSource: Space-Track

Época: Sep 14, 2026, 15:47 UTC

1 59442U 24066A   26257.65764443  .00010480  00000-0  30953-3 0  9999
2 59442  45.6171 351.9682 0012170 264.4733  95.4774 15.35174725135526

Sigue TSAT-1A en tiempo real con AllMySat

Download on the App Store